N273KA KLAN-KIAH

Flight info

Callsign N273KA
Flight time 2h 27m
Altitude 40000
Route BAGEL BVT DAAVE ARG SWEUP GESNR2
Aircraft FA50/M-SDFGHIM1RWXY/HB2

Departure

Time 2026-04-26 14:47
Airport Capital Region International Airport (KLAN)

Arrival

Time 2026-04-26 17:15
Airport George Bush Intercontinental Airport (KIAH)
Time Latitude Longitude Altitude Speed Heading
2026-04-26 14:05 42.77422 -84.59232 853 ft 0 kts 233°
2026-04-26 14:42 42.77418 -84.59242 853 ft 2 kts 250°
2026-04-26 14:43 42.77422 -84.59268 853 ft 2 kts 316°
2026-04-26 14:43 42.77438 -84.59283 853 ft 3 kts 330°
2026-04-26 14:43 42.77475 -84.59284 853 ft 7 kts
2026-04-26 14:43 42.77535 -84.59312 853 ft 9 kts 335°
2026-04-26 14:44 42.77590 -84.59316 851 ft 9 kts 16°
2026-04-26 14:44 42.77648 -84.59242 850 ft 13 kts 53°
2026-04-26 14:44 42.77692 -84.59222 850 ft 10 kts 270°
2026-04-26 14:44 42.77693 -84.59348 850 ft 16 kts 270°
2026-04-26 14:45 42.77695 -84.59521 853 ft 16 kts 271°
2026-04-26 14:45 42.77696 -84.59616 853 ft 14 kts 270°
2026-04-26 14:45 42.77697 -84.59791 853 ft 13 kts 270°
2026-04-26 14:45 42.77697 -84.59917 853 ft 11 kts 270°
2026-04-26 14:46 42.77698 -84.60020 853 ft 11 kts 271°
2026-04-26 14:46 42.77727 -84.60097 853 ft 9 kts 355°
2026-04-26 14:46 42.77803 -84.60094 853 ft 9 kts 20°
2026-04-26 14:46 42.77821 -84.59966 853 ft 38 kts 90°
2026-04-26 14:47 42.77816 -84.59220 850 ft 115 kts 90°
2026-04-26 14:47 42.77804 -84.58076 1328 ft 123 kts 90°
2026-04-26 14:47 42.77805 -84.56857 1832 ft 144 kts 90°
2026-04-26 14:47 42.77801 -84.55405 2476 ft 166 kts 90°
2026-04-26 14:48 42.77810 -84.53781 3262 ft 185 kts 89°
2026-04-26 14:48 42.77831 -84.51983 4141 ft 201 kts 89°
2026-04-26 14:48 42.77850 -84.49980 4857 ft 228 kts 89°
2026-04-26 14:48 42.77465 -84.47878 5892 ft 242 kts 121°
2026-04-26 14:49 42.76131 -84.46363 6643 ft 271 kts 157°
2026-04-26 14:49 42.74287 -84.45882 7822 ft 280 kts 172°
2026-04-26 14:49 42.72340 -84.45731 9067 ft 288 kts 180°
2026-04-26 14:49 42.70431 -84.46314 10345 ft 293 kts 201°
2026-04-26 14:50 42.68625 -84.47604 11420 ft 304 kts 212°
2026-04-26 14:50 42.66863 -84.49271 12449 ft 314 kts 217°
2026-04-26 14:50 42.65129 -84.51002 13639 ft 316 kts 217°
2026-04-26 14:50 42.63356 -84.52770 14809 ft 318 kts 218°
2026-04-26 14:51 42.61602 -84.54515 15957 ft 318 kts 218°
2026-04-26 14:51 42.59848 -84.56259 17083 ft 316 kts 218°
2026-04-26 14:51 42.58071 -84.58023 18043 ft 320 kts 218°
2026-04-26 14:51 42.56296 -84.59783 18904 ft 324 kts 218°
2026-04-26 14:52 42.54460 -84.61602 19725 ft 329 kts 218°
2026-04-26 14:52 42.52605 -84.63439 20523 ft 334 kts 218°
2026-04-26 14:52 42.50737 -84.65288 21271 ft 339 kts 218°
2026-04-26 14:52 42.48822 -84.67180 21991 ft 343 kts 218°
2026-04-26 14:53 42.46897 -84.69082 22713 ft 347 kts 218°
2026-04-26 14:53 42.44958 -84.70995 23375 ft 351 kts 218°
2026-04-26 14:53 42.42977 -84.72948 24026 ft 355 kts 218°
2026-04-26 14:53 42.40979 -84.74917 24630 ft 359 kts 218°
2026-04-26 14:54 42.38950 -84.76914 25189 ft 364 kts 218°
2026-04-26 14:54 42.36921 -84.78911 25780 ft 367 kts 218°
2026-04-26 14:54 42.34849 -84.80947 26309 ft 372 kts 218°
2026-04-26 14:54 42.32747 -84.83011 26852 ft 375 kts 218°
2026-04-26 14:55 42.30639 -84.85079 27343 ft 379 kts 218°
2026-04-26 14:55 42.28509 -84.87170 27841 ft 382 kts 218°
2026-04-26 14:55 42.26344 -84.89293 28305 ft 386 kts 218°
2026-04-26 14:55 42.24162 -84.91428 28770 ft 389 kts 218°
2026-04-26 14:56 42.21997 -84.93546 29209 ft 392 kts 219°
2026-04-26 14:56 42.19777 -84.95715 29634 ft 395 kts 219°
2026-04-26 14:56 42.17563 -84.97877 30039 ft 398 kts 219°
2026-04-26 14:56 42.15292 -85.00092 30442 ft 401 kts 219°
2026-04-26 14:57 42.13036 -85.02290 30831 ft 404 kts 219°
2026-04-26 14:57 42.10772 -85.04493 31201 ft 407 kts 219°
2026-04-26 14:57 42.08477 -85.06724 31547 ft 410 kts 219°
2026-04-26 14:57 42.06165 -85.08971 31910 ft 412 kts 219°
2026-04-26 14:58 42.03850 -85.11218 32247 ft 415 kts 219°
2026-04-26 14:58 42.01507 -85.13490 32579 ft 417 kts 219°
2026-04-26 14:58 41.99166 -85.15758 32883 ft 420 kts 219°
2026-04-26 14:58 41.96787 -85.18063 33061 ft 426 kts 219°
2026-04-26 14:59 41.94389 -85.20382 33404 ft 427 kts 219°
2026-04-26 14:59 41.91979 -85.22710 33713 ft 429 kts 219°
2026-04-26 14:59 41.89561 -85.25044 33969 ft 432 kts 219°
2026-04-26 14:59 41.87920 -85.26627 34145 ft 434 kts 219°
2026-04-26 15:00 41.84665 -85.29762 34555 ft 435 kts 219°
2026-04-26 15:00 41.82244 -85.32092 34835 ft 437 kts 219°
2026-04-26 15:00 41.79769 -85.34471 35164 ft 437 kts 220°
2026-04-26 15:00 41.77341 -85.36804 35371 ft 439 kts 220°
2026-04-26 15:01 41.74887 -85.39157 35857 ft 435 kts 220°
2026-04-26 15:01 41.72430 -85.41512 36283 ft 432 kts 220°
2026-04-26 15:01 41.70003 -85.43836 36583 ft 432 kts 220°
2026-04-26 15:01 41.67572 -85.46163 36880 ft 432 kts 220°
2026-04-26 15:02 41.65119 -85.48508 37193 ft 432 kts 220°
2026-04-26 15:02 41.62721 -85.50798 37523 ft 430 kts 220°
2026-04-26 15:02 41.60274 -85.53133 37813 ft 430 kts 220°
2026-04-26 15:02 41.57848 -85.55446 38105 ft 429 kts 220°
2026-04-26 15:03 41.55452 -85.57729 38372 ft 429 kts 221°
2026-04-26 15:03 41.53110 -85.60146 38652 ft 426 kts 225°
2026-04-26 15:03 41.50925 -85.62754 38910 ft 423 kts 229°
2026-04-26 15:03 41.48903 -85.65565 39180 ft 420 kts 233°
2026-04-26 15:04 41.46997 -85.68506 39402 ft 420 kts 233°
2026-04-26 15:04 41.45102 -85.71453 39640 ft 420 kts 233°
2026-04-26 15:04 41.43191 -85.74419 39884 ft 420 kts 233°
2026-04-26 15:04 41.41301 -85.77349 40093 ft 421 kts 233°
2026-04-26 15:05 41.39393 -85.80301 40188 ft 422 kts 233°
2026-04-26 15:05 41.35567 -85.86209 40177 ft 426 kts 233°
2026-04-26 15:06 41.31714 -85.92144 40176 ft 429 kts 233°
2026-04-26 15:06 41.27818 -85.98132 40171 ft 432 kts 233°
2026-04-26 15:07 41.21895 -86.07210 40159 ft 434 kts 233°
2026-04-26 15:07 41.17960 -86.13228 40152 ft 436 kts 233°
2026-04-26 15:08 41.13972 -86.19313 40147 ft 437 kts 234°
2026-04-26 15:08 41.09994 -86.25369 40147 ft 438 kts 234°
2026-04-26 15:09 41.06003 -86.31435 40147 ft 439 kts 234°
2026-04-26 15:09 41.02000 -86.37505 40146 ft 439 kts 234°
2026-04-26 15:10 40.98677 -86.42536 40146 ft 440 kts 234°
2026-04-26 15:10 40.93979 -86.49634 40145 ft 440 kts 234°
2026-04-26 15:11 40.89973 -86.55673 40145 ft 440 kts 234°
2026-04-26 15:11 40.85930 -86.61754 40139 ft 440 kts 234°
2026-04-26 15:12 40.81903 -86.67801 40147 ft 440 kts 233°
2026-04-26 15:12 40.77883 -86.73824 40147 ft 440 kts 233°
2026-04-26 15:13 40.73852 -86.79852 40146 ft 440 kts 233°
2026-04-26 15:13 40.69811 -86.85884 40146 ft 440 kts 233°
2026-04-26 15:14 40.65790 -86.91872 40144 ft 440 kts 233°
2026-04-26 15:14 40.61732 -86.97905 40136 ft 440 kts 233°
2026-04-26 15:15 40.57658 -87.03883 40129 ft 441 kts 231°
2026-04-26 15:15 40.53128 -87.09335 40123 ft 447 kts 223°
2026-04-26 15:16 40.48121 -87.14174 40117 ft 448 kts 222°
2026-04-26 15:16 40.43105 -87.18993 40117 ft 448 kts 222°
2026-04-26 15:17 40.38938 -87.22987 40117 ft 448 kts 222°
2026-04-26 15:17 40.33091 -87.28581 40117 ft 447 kts 222°
2026-04-26 15:18 40.28080 -87.33366 40113 ft 447 kts 222°
2026-04-26 15:18 40.23079 -87.38131 40103 ft 447 kts 222°
2026-04-26 15:19 40.18087 -87.42879 40095 ft 446 kts 222°
2026-04-26 15:19 40.13092 -87.47621 40089 ft 446 kts 222°
2026-04-26 15:20 40.08058 -87.52391 40088 ft 445 kts 222°
2026-04-26 15:20 40.03085 -87.57095 40088 ft 445 kts 222°
2026-04-26 15:21 39.98098 -87.61803 40088 ft 445 kts 223°
2026-04-26 15:21 39.93086 -87.66525 40096 ft 444 kts 222°
2026-04-26 15:22 39.88096 -87.71219 40092 ft 445 kts 222°
2026-04-26 15:22 39.83111 -87.75899 40093 ft 445 kts 222°
2026-04-26 15:23 39.78085 -87.80608 40091 ft 445 kts 222°
2026-04-26 15:23 39.73119 -87.85253 40091 ft 444 kts 222°
2026-04-26 15:24 39.68100 -87.89939 40091 ft 445 kts 222°
2026-04-26 15:24 39.63085 -87.94613 40090 ft 445 kts 222°
2026-04-26 15:25 39.58937 -87.98472 40088 ft 445 kts 222°
2026-04-26 15:25 39.53088 -88.03904 40084 ft 444 kts 222°
2026-04-26 15:26 39.48060 -88.08565 40081 ft 444 kts 222°
2026-04-26 15:26 39.43064 -88.13187 40081 ft 444 kts 222°
2026-04-26 15:27 39.38057 -88.17811 40081 ft 444 kts 222°
2026-04-26 15:27 39.33057 -88.22420 40081 ft 443 kts 222°
2026-04-26 15:28 39.28070 -88.27010 40080 ft 443 kts 222°
2026-04-26 15:28 39.23040 -88.31630 40080 ft 443 kts 222°
2026-04-26 15:29 39.18071 -88.36186 40079 ft 443 kts 222°
2026-04-26 15:30 39.08069 -88.45333 40079 ft 442 kts 222°
2026-04-26 15:30 39.03071 -88.49892 40079 ft 442 kts 222°
2026-04-26 15:31 38.95591 -88.56699 40079 ft 441 kts 223°
2026-04-26 15:32 38.88942 -88.62735 40075 ft 441 kts 223°
2026-04-26 15:32 38.83102 -88.68024 40085 ft 441 kts 222°
2026-04-26 15:33 38.78119 -88.72530 40084 ft 441 kts 222°
2026-04-26 15:33 38.73109 -88.77051 40083 ft 441 kts 222°
2026-04-26 15:34 38.68100 -88.81564 40083 ft 442 kts 222°
2026-04-26 15:34 38.63083 -88.86075 40074 ft 442 kts 222°
2026-04-26 15:35 38.58083 -88.90564 40066 ft 442 kts 222°
2026-04-26 15:35 38.53059 -88.95065 40056 ft 442 kts 222°
2026-04-26 15:36 38.48067 -88.99532 40047 ft 442 kts 222°
2026-04-26 15:36 38.43037 -89.04024 40038 ft 442 kts 222°
2026-04-26 15:37 38.37994 -89.08450 40036 ft 443 kts 221°
2026-04-26 15:37 38.32884 -89.12785 40035 ft 443 kts 221°
2026-04-26 15:38 38.27782 -89.17120 40041 ft 442 kts 221°
2026-04-26 15:38 38.22692 -89.21446 40045 ft 442 kts 221°
2026-04-26 15:39 38.17591 -89.25777 40044 ft 442 kts 221°
2026-04-26 15:39 38.13361 -89.29365 40044 ft 441 kts 221°
2026-04-26 15:40 38.07419 -89.34398 40045 ft 441 kts 221°
2026-04-26 15:40 38.02324 -89.38705 40043 ft 441 kts 221°
2026-04-26 15:41 37.97255 -89.42983 40042 ft 440 kts 221°
2026-04-26 15:41 37.92184 -89.47256 40042 ft 440 kts 221°
2026-04-26 15:42 37.87084 -89.51546 40032 ft 440 kts 221°
2026-04-26 15:42 37.82016 -89.55801 40027 ft 439 kts 221°
2026-04-26 15:43 37.76953 -89.60046 40020 ft 439 kts 221°
2026-04-26 15:44 37.69346 -89.66409 40029 ft 438 kts 221°
2026-04-26 15:44 37.61728 -89.72768 40030 ft 439 kts 221°
2026-04-26 15:45 37.54132 -89.79091 40030 ft 440 kts 221°
2026-04-26 15:46 37.46507 -89.85422 40029 ft 440 kts 221°
2026-04-26 15:46 37.42245 -89.88955 40029 ft 440 kts 221°
2026-04-26 15:47 37.33757 -89.95974 40029 ft 441 kts 221°
2026-04-26 15:48 37.28649 -90.00189 40028 ft 441 kts 221°
2026-04-26 15:48 37.23528 -90.04408 40026 ft 441 kts 221°
2026-04-26 15:49 37.18427 -90.08604 40020 ft 441 kts 221°
2026-04-26 15:49 37.13307 -90.12807 40010 ft 441 kts 221°
2026-04-26 15:50 37.08183 -90.17008 40002 ft 441 kts 221°
2026-04-26 15:50 37.03099 -90.21169 40001 ft 440 kts 221°
2026-04-26 15:51 36.97989 -90.25345 39999 ft 440 kts 221°
2026-04-26 15:51 36.92878 -90.29514 40000 ft 440 kts 221°
2026-04-26 15:52 36.87783 -90.33662 39992 ft 439 kts 221°
2026-04-26 15:52 36.82663 -90.37825 39992 ft 439 kts 221°
2026-04-26 15:53 36.77565 -90.41964 39992 ft 438 kts 221°
2026-04-26 15:53 36.72488 -90.46079 39992 ft 438 kts 221°
2026-04-26 15:54 36.67413 -90.50185 39992 ft 437 kts 221°
2026-04-26 15:54 36.62315 -90.54304 39991 ft 437 kts 221°
2026-04-26 15:55 36.57256 -90.58385 39991 ft 436 kts 221°
2026-04-26 15:55 36.52160 -90.62489 39991 ft 436 kts 221°
2026-04-26 15:56 36.47117 -90.66544 40004 ft 436 kts 220°
2026-04-26 15:56 36.42027 -90.70630 40004 ft 437 kts 220°
2026-04-26 15:57 36.36926 -90.74719 40005 ft 437 kts 220°
2026-04-26 15:57 36.31820 -90.78805 40003 ft 438 kts 220°
2026-04-26 15:58 36.26722 -90.82877 40003 ft 438 kts 220°
2026-04-26 15:58 36.21618 -90.86949 40004 ft 438 kts 220°
2026-04-26 15:59 36.16536 -90.90997 40002 ft 438 kts 220°
2026-04-26 15:59 36.11297 -90.94840 40002 ft 444 kts 215°
2026-04-26 16:00 36.05544 -90.97771 40003 ft 452 kts 207°
2026-04-26 16:00 35.99607 -91.00376 39999 ft 452 kts 208°
2026-04-26 16:01 35.93729 -91.02952 39994 ft 452 kts 208°
2026-04-26 16:01 35.87924 -91.05489 39985 ft 452 kts 208°
2026-04-26 16:02 35.82032 -91.08060 39983 ft 451 kts 208°
2026-04-26 16:02 35.76133 -91.10628 39984 ft 451 kts 208°
2026-04-26 16:03 35.70244 -91.13189 39985 ft 451 kts 208°
2026-04-26 16:03 35.64367 -91.15739 39986 ft 450 kts 208°
2026-04-26 16:04 35.58504 -91.18281 39986 ft 450 kts 208°
2026-04-26 16:04 35.52629 -91.20824 39987 ft 450 kts 208°
2026-04-26 16:05 35.46736 -91.23370 39983 ft 449 kts 208°
2026-04-26 16:05 35.40860 -91.25904 39976 ft 449 kts 208°
2026-04-26 16:06 35.35006 -91.28426 39969 ft 449 kts 208°
2026-04-26 16:06 35.29131 -91.30952 39968 ft 449 kts 208°
2026-04-26 16:07 35.23262 -91.33472 39968 ft 449 kts 208°
2026-04-26 16:07 35.17391 -91.35989 39968 ft 449 kts 208°
2026-04-26 16:08 35.11506 -91.38509 39968 ft 449 kts 208°
2026-04-26 16:08 35.05613 -91.41027 39968 ft 449 kts 208°
2026-04-26 16:09 34.99770 -91.43521 39968 ft 449 kts 208°
2026-04-26 16:09 34.93865 -91.46037 39968 ft 449 kts 208°
2026-04-26 16:10 34.88140 -91.48473 39964 ft 449 kts 208°
2026-04-26 16:10 34.82254 -91.50973 39965 ft 449 kts 208°
2026-04-26 16:11 34.76391 -91.53459 39969 ft 449 kts 208°
2026-04-26 16:11 34.70544 -91.55935 39972 ft 449 kts 208°
2026-04-26 16:12 34.64719 -91.58398 39972 ft 449 kts 208°
2026-04-26 16:12 34.55936 -91.62106 39972 ft 448 kts 208°
2026-04-26 16:13 34.50056 -91.64584 39971 ft 448 kts 208°
2026-04-26 16:13 34.44176 -91.67057 39988 ft 448 kts 208°
2026-04-26 16:14 34.38309 -91.69522 39987 ft 449 kts 208°
2026-04-26 16:15 34.29469 -91.73229 39986 ft 450 kts 208°
2026-04-26 16:15 34.23595 -91.75687 39986 ft 450 kts 207°
2026-04-26 16:16 34.14737 -91.79387 39991 ft 450 kts 207°
2026-04-26 16:16 34.08816 -91.81855 39987 ft 450 kts 207°
2026-04-26 16:17 34.02943 -91.84300 39985 ft 450 kts 207°
2026-04-26 16:17 33.97018 -91.86763 39985 ft 450 kts 207°
2026-04-26 16:18 33.88374 -91.90350 39982 ft 450 kts 207°
2026-04-26 16:19 33.79527 -91.94012 39977 ft 450 kts 207°
2026-04-26 16:20 33.70711 -91.97656 39966 ft 450 kts 208°
2026-04-26 16:20 33.61848 -92.01309 39954 ft 450 kts 208°
2026-04-26 16:21 33.55986 -92.03722 39947 ft 450 kts 207°
2026-04-26 16:21 33.50061 -92.06156 39942 ft 451 kts 208°
2026-04-26 16:22 33.44149 -92.08581 39937 ft 451 kts 208°
2026-04-26 16:22 33.38221 -92.11011 39931 ft 451 kts 208°
2026-04-26 16:23 33.32323 -92.13423 39925 ft 452 kts 208°
2026-04-26 16:23 33.26402 -92.15842 39918 ft 452 kts 208°
2026-04-26 16:24 33.20462 -92.18265 39916 ft 452 kts 208°
2026-04-26 16:24 33.14540 -92.20678 39916 ft 452 kts 208°
2026-04-26 16:25 33.08596 -92.23096 39919 ft 453 kts 208°
2026-04-26 16:25 33.02689 -92.25495 39938 ft 453 kts 208°
2026-04-26 16:26 32.97732 -92.27506 39951 ft 453 kts 208°
2026-04-26 16:26 32.90768 -92.30328 39962 ft 454 kts 208°
2026-04-26 16:27 32.85149 -92.32600 39955 ft 454 kts 208°
2026-04-26 16:27 32.79153 -92.35022 39955 ft 454 kts 208°
2026-04-26 16:28 32.73186 -92.37428 39954 ft 455 kts 208°
2026-04-26 16:28 32.67249 -92.39819 39955 ft 455 kts 208°
2026-04-26 16:29 32.61269 -92.42225 39955 ft 456 kts 208°
2026-04-26 16:29 32.55276 -92.44632 39955 ft 456 kts 208°
2026-04-26 16:30 32.49295 -92.47031 39956 ft 456 kts 208°
2026-04-26 16:30 32.43282 -92.49438 39957 ft 457 kts 208°
2026-04-26 16:31 32.37308 -92.51828 39960 ft 457 kts 208°
2026-04-26 16:31 32.31284 -92.54234 39964 ft 457 kts 208°
2026-04-26 16:32 32.26282 -92.56229 39965 ft 457 kts 208°
2026-04-26 16:32 32.19272 -92.59021 39965 ft 458 kts 208°
2026-04-26 16:33 32.13287 -92.61401 39965 ft 458 kts 208°
2026-04-26 16:33 32.07284 -92.63786 39965 ft 459 kts 208°
2026-04-26 16:34 32.01365 -92.66172 39981 ft 455 kts 211°
2026-04-26 16:34 31.98585 -92.67753 39983 ft 444 kts 220°
2026-04-26 16:34 31.96059 -92.69795 39985 ft 433 kts 229°
2026-04-26 16:35 31.91908 -92.74712 39983 ft 423 kts 237°
2026-04-26 16:35 31.88028 -92.79793 39972 ft 424 kts 237°
2026-04-26 16:36 31.84133 -92.84865 39973 ft 424 kts 237°
2026-04-26 16:36 31.80196 -92.89987 39972 ft 425 kts 237°
2026-04-26 16:37 31.76251 -92.95081 39975 ft 425 kts 237°
2026-04-26 16:37 31.72942 -92.99352 39975 ft 425 kts 237°
2026-04-26 16:38 31.68348 -93.05279 39972 ft 425 kts 237°
2026-04-26 16:38 31.64371 -93.10401 39969 ft 425 kts 237°
2026-04-26 16:39 31.60410 -93.15498 39968 ft 424 kts 237°
2026-04-26 16:39 31.56439 -93.20598 39968 ft 424 kts 237°
2026-04-26 16:40 31.52475 -93.25684 39968 ft 423 kts 237°
2026-04-26 16:40 31.48545 -93.30719 39967 ft 423 kts 237°
2026-04-26 16:41 31.44562 -93.35815 39966 ft 422 kts 237°
2026-04-26 16:41 31.40630 -93.40840 39965 ft 422 kts 237°
2026-04-26 16:42 31.36659 -93.45908 39965 ft 422 kts 237°
2026-04-26 16:42 31.32718 -93.50932 39704 ft 421 kts 237°
2026-04-26 16:43 31.30743 -93.53445 39441 ft 419 kts 237°
2026-04-26 16:43 31.28788 -93.55933 39178 ft 418 kts 237°
2026-04-26 16:43 31.26836 -93.58414 38915 ft 417 kts 237°
2026-04-26 16:43 31.24884 -93.60896 38450 ft 419 kts 237°
2026-04-26 16:44 31.22901 -93.63416 37938 ft 421 kts 236°
2026-04-26 16:44 31.20949 -93.65893 37445 ft 423 kts 236°
2026-04-26 16:44 31.18960 -93.68415 36963 ft 424 kts 236°
2026-04-26 16:44 31.16945 -93.70969 36474 ft 426 kts 235°
2026-04-26 16:45 31.14965 -93.73476 35996 ft 427 kts 235°
2026-04-26 16:45 31.12930 -93.76051 35478 ft 429 kts 235°
2026-04-26 16:45 31.10947 -93.78560 34951 ft 431 kts 234°
2026-04-26 16:45 31.08924 -93.81117 34413 ft 432 kts 234°
2026-04-26 16:46 31.06868 -93.83712 33868 ft 433 kts 234°
2026-04-26 16:46 31.04857 -93.86250 33336 ft 435 kts 234°
2026-04-26 16:46 31.02797 -93.88848 32789 ft 432 kts 234°
2026-04-26 16:46 31.00792 -93.91372 32249 ft 428 kts 234°
2026-04-26 16:47 30.98763 -93.93926 31713 ft 423 kts 234°
2026-04-26 16:47 30.96802 -93.96394 31221 ft 419 kts 234°
2026-04-26 16:47 30.94830 -93.98872 30723 ft 415 kts 234°
2026-04-26 16:47 30.92895 -94.01303 30231 ft 411 kts 234°
2026-04-26 16:48 30.90973 -94.03719 29737 ft 408 kts 234°
2026-04-26 16:48 30.89312 -94.05803 29303 ft 405 kts 234°
2026-04-26 16:48 30.87185 -94.08472 28737 ft 402 kts 233°
2026-04-26 16:48 30.85301 -94.10833 28169 ft 401 kts 233°
2026-04-26 16:49 30.83390 -94.13229 27534 ft 401 kts 233°
2026-04-26 16:49 30.81522 -94.15569 26931 ft 399 kts 233°
2026-04-26 16:49 30.79638 -94.17924 26418 ft 395 kts 233°
2026-04-26 16:49 30.77779 -94.20248 25909 ft 391 kts 233°
2026-04-26 16:50 30.75955 -94.22528 25405 ft 387 kts 233°
2026-04-26 16:50 30.74140 -94.24799 24900 ft 384 kts 233°
2026-04-26 16:50 30.72317 -94.27079 24390 ft 382 kts 232°
2026-04-26 16:50 30.70527 -94.29317 23888 ft 381 kts 232°
2026-04-26 16:51 30.68741 -94.31548 23385 ft 379 kts 232°
2026-04-26 16:51 30.66941 -94.33795 22876 ft 378 kts 232°
2026-04-26 16:51 30.65184 -94.35988 22378 ft 376 kts 232°
2026-04-26 16:51 30.63410 -94.38200 21868 ft 375 kts 232°
2026-04-26 16:52 30.61625 -94.40424 21244 ft 373 kts 232°
2026-04-26 16:52 30.60452 -94.41885 20823 ft 372 kts 232°
2026-04-26 16:52 30.58131 -94.44774 19984 ft 366 kts 232°
2026-04-26 16:52 30.56408 -94.46917 19352 ft 362 kts 232°
2026-04-26 16:53 30.54720 -94.49016 18730 ft 357 kts 232°
2026-04-26 16:53 30.53042 -94.51108 18207 ft 352 kts 233°
2026-04-26 16:53 30.51514 -94.53247 17705 ft 346 kts 236°
2026-04-26 16:53 30.50039 -94.55472 17192 ft 343 kts 237°
2026-04-26 16:54 30.48614 -94.57629 16692 ft 342 kts 236°
2026-04-26 16:54 30.47149 -94.59817 16187 ft 344 kts 236°
2026-04-26 16:54 30.45672 -94.62006 15682 ft 344 kts 236°
2026-04-26 16:54 30.44199 -94.64176 15176 ft 342 kts 235°
2026-04-26 16:55 30.42737 -94.66322 14752 ft 338 kts 234°
2026-04-26 16:55 30.41293 -94.68439 14378 ft 335 kts 234°
2026-04-26 16:55 30.39854 -94.70544 14007 ft 333 kts 234°
2026-04-26 16:55 30.38361 -94.72583 13633 ft 333 kts 231°
2026-04-26 16:56 30.35346 -94.76508 12684 ft 324 kts 231°
2026-04-26 16:56 30.33875 -94.78433 12179 ft 314 kts 231°
2026-04-26 16:56 30.32466 -94.80285 11679 ft 305 kts 230°
2026-04-26 16:57 30.31077 -94.82113 11174 ft 298 kts 230°
2026-04-26 16:57 30.29742 -94.83872 10783 ft 293 kts 229°
2026-04-26 16:57 30.27143 -94.87349 10275 ft 283 kts 231°
2026-04-26 16:58 30.25896 -94.89095 10024 ft 281 kts 230°
2026-04-26 16:58 30.25064 -94.90258 9856 ft 281 kts 230°
2026-04-26 16:58 30.22149 -94.94311 9276 ft 282 kts 229°
2026-04-26 16:59 30.20891 -94.96054 9024 ft 280 kts 229°
2026-04-26 16:59 30.18418 -94.99478 8519 ft 275 kts 229°
2026-04-26 17:00 30.16009 -95.02809 8027 ft 266 kts 229°
2026-04-26 17:00 30.13725 -95.05971 7996 ft 254 kts 230°
2026-04-26 17:00 30.12806 -95.07722 8002 ft 258 kts 245°
2026-04-26 17:01 30.12289 -95.09721 8003 ft 262 kts 256°
2026-04-26 17:01 30.11941 -95.11797 7999 ft 263 kts 257°
2026-04-26 17:01 30.11623 -95.13882 7998 ft 263 kts 258°
2026-04-26 17:01 30.11348 -95.15913 7941 ft 264 kts 261°
2026-04-26 17:02 30.11153 -95.18034 7701 ft 270 kts 262°
2026-04-26 17:02 30.10965 -95.20186 7453 ft 269 kts 262°
2026-04-26 17:02 30.10783 -95.22308 7199 ft 264 kts 262°
2026-04-26 17:02 30.10613 -95.24391 6945 ft 260 kts 262°
2026-04-26 17:03 30.10446 -95.26472 6687 ft 257 kts 262°
2026-04-26 17:03 30.10290 -95.28505 6434 ft 254 kts 262°
2026-04-26 17:03 30.10155 -95.30533 6177 ft 253 kts 266°
2026-04-26 17:03 30.10262 -95.32539 5925 ft 248 kts 272°
2026-04-26 17:04 30.10426 -95.34492 5665 ft 241 kts 272°
2026-04-26 17:04 30.10592 -95.36388 5406 ft 235 kts 272°
2026-04-26 17:04 30.10758 -95.38260 5146 ft 230 kts 272°
2026-04-26 17:04 30.10918 -95.40057 4893 ft 228 kts 272°
2026-04-26 17:05 30.11078 -95.41879 4640 ft 227 kts 272°
2026-04-26 17:05 30.11235 -95.43701 4388 ft 227 kts 272°
2026-04-26 17:05 30.11390 -95.45515 4135 ft 228 kts 272°
2026-04-26 17:05 30.11547 -95.47333 3884 ft 228 kts 272°
2026-04-26 17:06 30.11700 -95.49161 3632 ft 228 kts 272°
2026-04-26 17:06 30.11847 -95.50974 3381 ft 228 kts 272°
2026-04-26 17:06 30.11994 -95.52787 3131 ft 228 kts 272°
2026-04-26 17:06 30.12139 -95.54584 2984 ft 223 kts 272°
2026-04-26 17:07 30.12285 -95.56367 2993 ft 219 kts 272°
2026-04-26 17:07 30.12368 -95.58096 2991 ft 214 kts 257°
2026-04-26 17:07 30.11665 -95.59483 3016 ft 199 kts 212°
2026-04-26 17:07 30.10375 -95.59963 3020 ft 195 kts 185°
2026-04-26 17:08 30.09027 -95.60085 3004 ft 198 kts 182°
2026-04-26 17:08 30.07629 -95.60181 3010 ft 200 kts 182°
2026-04-26 17:08 30.06244 -95.60273 3008 ft 201 kts 182°
2026-04-26 17:08 30.04842 -95.60367 3008 ft 201 kts 182°
2026-04-26 17:09 30.03465 -95.60458 3008 ft 202 kts 182°
2026-04-26 17:09 30.02535 -95.60363 3003 ft 201 kts 160°
2026-04-26 17:09 30.01313 -95.58804 3030 ft 203 kts 116°
2026-04-26 17:09 30.00822 -95.57270 3007 ft 203 kts 112°
2026-04-26 17:10 30.00368 -95.55746 3005 ft 201 kts 112°
2026-04-26 17:10 29.99919 -95.54243 3002 ft 194 kts 114°
2026-04-26 17:10 29.99518 -95.52809 2995 ft 186 kts 105°
2026-04-26 17:10 29.99354 -95.51319 2797 ft 191 kts 97°
2026-04-26 17:11 29.99323 -95.49777 2550 ft 194 kts 94°
2026-04-26 17:11 29.99324 -95.48266 2286 ft 183 kts 93°
2026-04-26 17:11 29.99328 -95.46883 2047 ft 171 kts 93°
2026-04-26 17:11 29.99331 -95.45676 1913 ft 145 kts 93°
2026-04-26 17:12 29.99335 -95.43695 1520 ft 120 kts 92°
2026-04-26 17:12 29.99336 -95.42815 1364 ft 116 kts 91°
2026-04-26 17:13 29.99372 -95.41087 1136 ft 115 kts 89°
2026-04-26 17:13 29.99377 -95.40228 1023 ft 115 kts 91°
2026-04-26 17:13 29.99379 -95.38525 672 ft 110 kts 92°
2026-04-26 17:14 29.99367 -95.37695 534 ft 109 kts 91°
2026-04-26 17:14 29.99359 -95.36057 284 ft 107 kts 91°
2026-04-26 17:14 29.99349 -95.35275 108 ft 97 kts 92°
2026-04-26 17:15 29.99335 -95.34192 99 ft 48 kts 91°
2026-04-26 17:15 29.99294 -95.33913 99 ft 29 kts 116°
2026-04-26 17:15 29.99236 -95.33802 99 ft 8 kts 127°
2026-04-26 17:16 29.99194 -95.33794 99 ft 9 kts 231°
2026-04-26 17:16 29.99178 -95.33889 99 ft 14 kts 269°
2026-04-26 17:16 29.99176 -95.34025 99 ft 19 kts 271°
2026-04-26 17:16 29.99176 -95.34197 99 ft 24 kts 268°
2026-04-26 17:17 29.99176 -95.34383 99 ft 21 kts 270°
2026-04-26 17:17 29.99176 -95.34550 99 ft 23 kts 270°
2026-04-26 17:17 29.99177 -95.34733 99 ft 20 kts 270°
2026-04-26 17:17 29.99177 -95.34880 99 ft 18 kts 269°
2026-04-26 17:18 29.99177 -95.35033 99 ft 20 kts 270°
2026-04-26 17:18 29.99177 -95.35204 99 ft 19 kts 270°
2026-04-26 17:18 29.99176 -95.35339 99 ft 14 kts 269°
2026-04-26 17:18 29.99173 -95.35455 99 ft 13 kts 249°
2026-04-26 17:19 29.98939 -95.35484 99 ft 22 kts 181°
2026-04-26 17:19 29.98806 -95.35464 98 ft 17 kts 152°
2026-04-26 17:19 29.98705 -95.35400 98 ft 16 kts 153°
2026-04-26 17:20 29.98599 -95.35333 98 ft 19 kts 149°
2026-04-26 17:20 29.98523 -95.35287 98 ft 20 kts 151°
2026-04-26 17:20 29.98352 -95.35179 98 ft 22 kts 152°
2026-04-26 17:20 29.98220 -95.35095 97 ft 23 kts 150°
2026-04-26 17:21 29.98065 -95.35000 97 ft 23 kts 151°
2026-04-26 17:21 29.97928 -95.34916 97 ft 22 kts 152°
2026-04-26 17:21 29.97780 -95.34824 96 ft 24 kts 153°
2026-04-26 17:21 29.97646 -95.34744 96 ft 20 kts 151°
2026-04-26 17:22 29.97509 -95.34660 96 ft 21 kts 152°
2026-04-26 17:22 29.97375 -95.34578 96 ft 23 kts 151°
2026-04-26 17:22 29.97249 -95.34501 95 ft 16 kts 152°
2026-04-26 17:22 29.97221 -95.34440 95 ft 9 kts 59°
2026-04-26 17:23 29.97250 -95.34379 95 ft 6 kts 64°
2026-04-26 17:23 29.97259 -95.34341 96 ft 4 kts 104°
2026-04-26 17:23 29.97235 -95.34314 95 ft 5 kts 152°
2026-04-26 17:23 29.97201 -95.34293 95 ft 5 kts 151°
2026-04-26 17:24 29.97163 -95.34268 95 ft 6 kts 152°
2026-04-26 17:24 29.97134 -95.34238 95 ft 5 kts 92°
2026-04-26 17:24 29.97145 -95.34209 95 ft 0 kts 62°